Aérodrome :
LOGIN :

S'inscrire | Disclaimer

   EN    FR    IT 

 










Légende :    VFR   VFR Marginal   IFR   IFR Intensif   IFR Très Intensif
Visi : 
Plafond : 
>= 8 km
>= 3000ft
5 à 8 km
1000 à 3000 ft
1500m à 5 km
500 à 1000 ft
800 à 1500m
200 à 500 ft
< 800m
< 200 ft
Symboles :   Orages  Brouillard  Fortes neiges  Fortes précipitations  Vent > 20 kt
SIGMETs :   Divers  Orages  Givrage  Turbulence  Onde Orograph.  Cendres Volcan.







- Altitude de l'aérodrome : 231 ft
- Code IATA : WTN


EGXW - RAF Waddington

DERNIER METAR :
  • 181050Z 14007KT CAVOK M00/M02 Q1016 BLU NOSIG

METARs EXPIRÉS :
  • 180950Z 16004KT CAVOK M01/M03 Q1016 BLU NOSIG
  • 180850Z 18005KT CAVOK M01/M03 Q1016 BLU NOSIG

TAF TAF EGXW
Valide du 18 à 09h jusqu'au 19 à 03h UTC


180737Z 1809/1903 19007KT CAVOK
BECMG 1816/1819 16015KT
BECMG 1818/1821 BKN012
PROB40
TEMPO 1819/1903 7000 -RA
PROB30
TEMPO 1821/1901 4000 -RASN SCT006
Pas de NOTAMs connus pour ce terrain.



MET'MAP, la Météo Aéronautique d'un coup d'oeil ! - Copyright ORBIFLY Décembre 2007 - Disclaimer

ORBIFLY MET'MAP TEAM :

Programmation & Développement : Alexandra Zaïnal
Conception & Développement : Baudouin d'Aumeries
Co-Programmation & Développement : Marc-Olivier Méhu
Soutien technique & logistique : Manuel Goepfert

Contact : metmap@orbifly.com




SOURCES & CREDITS :

   NOAA